Flag for Germany Weather past 2 weeks in Forchheim, Bavaria, Germany

Now
63 °F

Overcast.


Feels Like: 63 °F
Forecast: 46 / 65 °F
Wind: 2 mph from Southwest

Location: Bamberg

Current Time: Aug 23, 2014 at 4:08:50 PM

Latest Report: Aug 23, 2014 at 3:00 PM


Visibility: 44 mi

Pressure: 29.95 "Hg

Humidity: 74%

Dew point: 54 °F

Location of ForchheimLocation

Historic Weather in Forchheim — Graph

°F

Forchheim temperature yesterday

Maximum temperature yesterday: 67 °F (at 5:00 PM)
Minimum temperature yesterday: 46 °F (at 3:00 AM)
Average temperature yesterday: 56 °F

Past Weeks' High & Low Weather Summary

 TemperatureHumidityPressure
High87 °F (Aug 10, 3:00 PM)100% (Aug 11, 1:00 AM)30.12 "Hg (Aug 11, 1:00 AM)
Low44 °F (Aug 20, 7:00 AM)33% (Aug 8, 3:00 PM)29.66 "Hg (Aug 13, 5:00 PM)
Average60 °F79%29.92 "Hg
* Reported Aug 8 3:00 PM — Aug 23 3:00 PM, Forchheim, Weather by CustomWeather, © 2014

Note: Actual official high and low records may vary slightly from our data, if they occured in-between our weather recording intervals... More about our weather records

Advertising

Forchheim weather history for previous 24 hours

 ConditionsComfort  
Time TempWeatherWind HumidityBarometerVisibility
3:00 PM
Aug 23
63 °FOvercast.2 mph74%29.95 "Hg43 mi
2:00 PM62 °FOvercast.2 mph67%29.94 "Hg43 mi
1:00 PM65 °FOvercast.3 mph58%29.94 "Hg40 mi
12:00 PM65 °FOvercast.5 mph60%29.95 "Hg43 mi
11:00 AM65 °FOvercast.3 mph60%29.94 "Hg43 mi
10:00 AM60 °FOvercast.2 mph65%29.96 "Hg40 mi
9:00 AM57 °FOvercast.2 mph78%29.96 "Hg34 mi
8:00 AM53 °FOvercast.2 mph86%29.97 "Hg31 mi
7:00 AM51 °FOvercast.2 mph89%29.96 "Hg25 mi
6:00 AM51 °FOvercast.2 mph89%29.95 "Hg28 mi
5:00 AM50 °FOvercast.1 mph95%29.96 "Hg22 mi
4:00 AM48 °FOvercast.1 mph97%29.97 "Hg18 mi
3:00 AM49 °FOvercast.2 mph94%29.96 "Hg19 mi
2:00 AM48 °FOvercast.2 mph99%29.97 "Hg18 mi
1:00 AM46 °FPassing clouds.1 mph98%29.98 "Hg12 mi
12:00 AM47 °FOvercast.1 mph97%29.98 "Hg22 mi
11:00 PM
Aug 22
48 °FPassing clouds.1 mph95%29.98 "Hg25 mi
10:00 PM51 °FOvercast.1 mph93%29.97 "Hg40 mi
9:00 PM54 °FOvercast.1 mph88%29.96 "Hg25 mi
8:00 PM60 °FOvercast.1 mph69%29.93 "Hg43 mi
7:00 PM63 °FOvercast.2 mph58%29.93 "Hg43 mi
6:00 PM66 °FOvercast.3 mph43%29.93 "Hg43 mi
5:00 PM67 °FOvercast.3 mph39%29.93 "Hg43 mi
4:00 PM67 °FOvercast.2 mph41%29.94 "Hg43 mi
Weather by CustomWeather, © 2014

See weather overviewHow to use our weather pages